• In Deutschland
  • Länderverzeichnis
  • Für 7 Tage
  • Wassertemperatur
  • Satellitenkarten
  • Wetterkarte
  • Widgets
  • user-avatar
    Anmelden

    Stündliche Wetter Ischgl

    Heute, 30 März, Donnerstag

    Zeit Temperatur Niederschläge Wind Luftdruck Luftfeuchtigkeit
    00:00 -4°C° 0 mm 1 m/S 576 mmHg 95%
    01:00 -4°C° 0 mm 1 m/S 576 mmHg 94%
    02:00 -4°C° 0 mm 1 m/S 576 mmHg 93%
    03:00 -6°C° 0 mm 1 m/S 576 mmHg 91%
    04:00 -6°C° 0 mm 1 m/S 575 mmHg 89%
    05:00 -4°C° 0 mm 1 m/S 576 mmHg 86%
    06:00 -4°C° 0 mm 1 m/S 576 mmHg 82%
    07:00 -3°C° 0 mm 1 m/S 577 mmHg 78%
    08:00 0°C° 0 mm 1 m/S 578 mmHg 74%
    09:00 +3°C° 0 mm 1 m/S 579 mmHg 71%
    10:00 +5°C° 0 mm 0 m/S 581 mmHg 67%
    11:00 +6°C° 0 mm 1 m/S 581 mmHg 65%
    12:00 +7°C° 0 mm 1 m/S 581 mmHg 62%
    13:00 +8°C° 0 mm 1 m/S 582 mmHg 60%
    14:00 +8°C° 0 mm 1 m/S 581 mmHg 62%
    15:00 +8°C° 0 mm 1 m/S 581 mmHg 64%
    16:00 +7°C° 0 mm 1 m/S 581 mmHg 66%
    17:00 +5°C° 0 mm 1 m/S 579 mmHg 75%
    18:00 +2°C° 0 mm 1 m/S 577 mmHg 83%
    19:00 -1°C° 0 mm 1 m/S 576 mmHg 92%
    20:00 -1°C° 0 mm 1 m/S 576 mmHg 92%
    21:00 -1°C° 0 mm 1 m/S 577 mmHg 91%
    22:00 -2°C° 0 mm 2 m/S 577 mmHg 91%
    23:00 -3°C° 0 mm 2 m/S 577 mmHg 92%

    Morgen, 31 März, Freitag

    Zeit Temperatur Niederschläge Wind Luftdruck Luftfeuchtigkeit
    00:00 -3°C° 0 mm 2 m/S 577 mmHg 92%
    01:00 -3°C° 0 mm 2 m/S 577 mmHg 93%
    02:00 -3°C° 0 mm 2 m/S 576 mmHg 93%
    03:00 -3°C° 0 mm 2 m/S 576 mmHg 93%
    04:00 -3°C° 0 mm 2 m/S 576 mmHg 94%
    05:00 -3°C° 0 mm 2 m/S 576 mmHg 92%
    06:00 -3°C° 0 mm 2 m/S 576 mmHg 91%
    07:00 -3°C° 0 mm 2 m/S 576 mmHg 90%
    08:00 -1°C° 0 mm 2 m/S 577 mmHg 82%
    09:00 +3°C° 0 mm 2 m/S 577 mmHg 74%
    10:00 +5°C° 0 mm 2 m/S 578 mmHg 66%
    11:00 +6°C° 0 mm 2 m/S 578 mmHg 63%
    12:00 +7°C° 0 mm 2 m/S 578 mmHg 59%
    13:00 +8°C° 0 mm 2 m/S 578 mmHg 56%
    14:00 +7°C° 0 mm 2 m/S 578 mmHg 58%
    15:00 +7°C° 0 mm 2 m/S 577 mmHg 60%
    16:00 +7°C° 0 mm 2 m/S 577 mmHg 63%
    17:00 +4°C° 0,1 mm 2 m/S 576 mmHg 73%
    18:00 +2°C° 0,1 mm 2 m/S 574 mmHg 83%
    19:00 +1°C° 0,1 mm 1 m/S 573 mmHg 92%
    20:00 -2°C° 0 mm 2 m/S 573 mmHg 93%
    21:00 -2°C° 0 mm 2 m/S 573 mmHg 93%
    22:00 -2°C° 0 mm 2 m/S 573 mmHg 94%
    23:00 -3°C° 0 mm 2 m/S 573 mmHg 93%

    übermorgen, 1 April, Samstag

    Zeit Temperatur Niederschläge Wind Luftdruck Luftfeuchtigkeit
    00:00 -3°C° 0 mm 2 m/S 572 mmHg 93%
    01:00 -3°C° 0 mm 2 m/S 572 mmHg 93%
    02:00 -4°C° 0 mm 2 m/S 572 mmHg 92%
    03:00 -4°C° 0 mm 2 m/S 571 mmHg 92%
    04:00 -4°C° 0 mm 2 m/S 571 mmHg 92%
    05:00 -4°C° 0 mm 2 m/S 571 mmHg 90%
    06:00 -4°C° 0 mm 2 m/S 571 mmHg 88%
    07:00 -3°C° 0 mm 2 m/S 571 mmHg 86%
    08:00 -1°C° 0 mm 2 m/S 572 mmHg 78%
    09:00 +2°C° 0 mm 2 m/S 573 mmHg 69%
    10:00 +4°C° 0 mm 2 m/S 574 mmHg 60%
    11:00 +4°C° 0 mm 2 m/S 574 mmHg 57%
    12:00 +5°C° 0 mm 2 m/S 574 mmHg 54%
    13:00 +6°C° 0 mm 2 m/S 575 mmHg 51%
    14:00 +6°C° 0,2 mm 2 m/S 574 mmHg 55%
    15:00 +5°C° 0,2 mm 2 m/S 574 mmHg 58%
    16:00 +5°C° 0,2 mm 2 m/S 574 mmHg 62%
    17:00 +3°C° 0,4 mm 2 m/S 573 mmHg 71%
    18:00 +1°C° 0,4 mm 2 m/S 572 mmHg 81%
    19:00 0°C° 0,4 mm 1 m/S 571 mmHg 91%
    20:00 -1°C° 0,2 mm 1 m/S 572 mmHg 91%
    21:00 -1°C° 0,2 mm 1 m/S 572 mmHg 92%
    22:00 -2°C° 0,2 mm 1 m/S 572 mmHg 93%
    23:00 -2°C° 0 mm 1 m/S 572 mmHg 93%

    2 April, Sonntag

    Zeit Temperatur Niederschläge Wind Luftdruck Luftfeuchtigkeit
    00:00 -2°C° 0 mm 1 m/S 573 mmHg 92%
    01:00 -2°C° 0 mm 1 m/S 573 mmHg 92%
    02:00 -2°C° 0 mm 1 m/S 573 mmHg 92%
    03:00 -2°C° 0 mm 1 m/S 573 mmHg 91%
    04:00 -3°C° 0 mm 1 m/S 573 mmHg 90%
    05:00 -2°C° 0 mm 1 m/S 573 mmHg 88%
    06:00 -1°C° 0 mm 1 m/S 574 mmHg 86%
    07:00 -1°C° 0 mm 1 m/S 574 mmHg 84%
    08:00 +1°C° 0 mm 1 m/S 575 mmHg 76%
    09:00 +3°C° 0 mm 1 m/S 577 mmHg 67%
    10:00 +5°C° 0 mm 1 m/S 578 mmHg 59%
    11:00 +6°C° 0,1 mm 1 m/S 578 mmHg 58%
    12:00 +7°C° 0,1 mm 1 m/S 578 mmHg 57%
    13:00 +7°C° 0,1 mm 1 m/S 579 mmHg 56%
    14:00 +7°C° 0,4 mm 1 m/S 578 mmHg 60%
    15:00 +6°C° 0,4 mm 1 m/S 578 mmHg 64%
    16:00 +6°C° 0,4 mm 1 m/S 578 mmHg 68%
    17:00 +4°C° 0,5 mm 1 m/S 577 mmHg 77%
    18:00 +2°C° 0,5 mm 1 m/S 576 mmHg 86%
    19:00 0°C° 0,5 mm 1 m/S 575 mmHg 94%
    20:00 0°C° 0,3 mm 1 m/S 576 mmHg 95%
    21:00 -1°C° 0,3 mm 0 m/S 576 mmHg 96%
    22:00 -1°C° 0,3 mm 0 m/S 577 mmHg 97%
    23:00 -1°C° 0,4 mm 0 m/S 577 mmHg 97%

    3 April, Montag

    Zeit Temperatur Niederschläge Wind Luftdruck Luftfeuchtigkeit
    00:00 -1°C° 0,4 mm 0 m/S 577 mmHg 97%
    01:00 0°C° 0,4 mm 1 m/S 577 mmHg 97%
    02:00 0°C° 0,4 mm 1 m/S 577 mmHg 97%
    03:00 0°C° 0,4 mm 1 m/S 577 mmHg 97%
    04:00 0°C° 0,4 mm 1 m/S 577 mmHg 97%
    05:00 0°C° 0,1 mm 1 m/S 577 mmHg 96%
    06:00 0°C° 0,1 mm 1 m/S 577 mmHg 96%
    07:00 0°C° 0,1 mm 1 m/S 577 mmHg 95%
    08:00 +1°C° 0 mm 1 m/S 578 mmHg 90%
    09:00 +2°C° 0 mm 1 m/S 578 mmHg 86%
    10:00 +3°C° 0 mm 1 m/S 579 mmHg 81%
    11:00 +4°C° 0,1 mm 1 m/S 579 mmHg 79%
    12:00 +4°C° 0,1 mm 1 m/S 579 mmHg 78%
    13:00 +5°C° 0,1 mm 1 m/S 579 mmHg 76%
    14:00 +5°C° 0,2 mm 1 m/S 579 mmHg 77%
    15:00 +4°C° 0,2 mm 2 m/S 579 mmHg 78%
    16:00 +4°C° 0,2 mm 2 m/S 579 mmHg 79%
    17:00 +4°C° 0,2 mm 1 m/S 578 mmHg 85%
    18:00 +2°C° 0,2 mm 1 m/S 577 mmHg 91%
    19:00 +1°C° 0,2 mm 1 m/S 577 mmHg 96%
    20:00 0°C° 0 mm 1 m/S 577 mmHg 97%
    21:00 0°C° 0 mm 1 m/S 577 mmHg 97%
    22:00 -1°C° 0 mm 1 m/S 577 mmHg 97%
    23:00 -1°C° 0 mm 1 m/S 576 mmHg 97%

    4 April, Dienstag

    Zeit Temperatur Niederschläge Wind Luftdruck Luftfeuchtigkeit
    00:00 -2°C° 0 mm 1 m/S 576 mmHg 97%
    01:00 -2°C° 0 mm 1 m/S 576 mmHg 97%
    02:00 -2°C° 0 mm 1 m/S 576 mmHg 97%
    03:00 -3°C° 0 mm 1 m/S 575 mmHg 96%
    04:00 -3°C° 0 mm 1 m/S 575 mmHg 96%
    05:00 -2°C° 0 mm 1 m/S 576 mmHg 95%
    06:00 -1°C° 0 mm 1 m/S 576 mmHg 94%
    07:00 0°C° 0 mm 1 m/S 577 mmHg 93%
    08:00 0°C° 0,1 mm 1 m/S 577 mmHg 89%
    09:00 -1°C° 0,1 mm 2 m/S 577 mmHg 84%
    10:00 +1°C° 0,1 mm 2 m/S 578 mmHg 80%
    11:00 +2°C° 0,1 mm 2 m/S 578 mmHg 76%
    12:00 +3°C° 0,1 mm 2 m/S 578 mmHg 72%
    13:00 +4°C° 0,1 mm 2 m/S 578 mmHg 68%
    14:00 +3°C° 0 mm 2 m/S 578 mmHg 70%
    15:00 +3°C° 0 mm 2 m/S 578 mmHg 72%
    16:00 +3°C° 0 mm 2 m/S 577 mmHg 74%
    17:00 +1°C° 0,1 mm 2 m/S 577 mmHg 80%
    18:00 -1°C° 0,1 mm 2 m/S 576 mmHg 87%
    19:00 -2°C° 0,1 mm 2 m/S 576 mmHg 93%
    20:00 -3°C° 0,1 mm 2 m/S 576 mmHg 94%
    21:00 -1°C° 0,1 mm 1 m/S 576 mmHg 95%
    22:00 -2°C° 0,1 mm 1 m/S 576 mmHg 96%
    23:00 -2°C° 0 mm 1 m/S 576 mmHg 96%
    Mehr zeigen